| time (UTC) | temp C | wind direction | speed KPH | gust KPH | rain 1hr cm | rain 24hr cm | rain mn cm | humidity % | barometer mb |
| 20260509043745 | 21 | 188 | 0.0 | 4.8 | 0.00 | 1.52 | 1.52 | 99 | 1016.4 |
| 20260509043241 | 21 | 77 | 0.0 | 1.6 | 0.00 | 1.52 | 1.52 | 99 | 1016.2 |
| 20260509042738 | 21 | 186 | 1.6 | 4.8 | 0.00 | 1.52 | 1.52 | 99 | 1016.1 |
| 20260509042234 | 21 | 139 | 0.0 | 6.4 | 0.00 | 1.52 | 1.52 | 99 | 1016.0 |
| 20260509041731 | 21 | 206 | 0.0 | 4.8 | 0.00 | 1.52 | 1.52 | 99 | 1015.8 |
| 20260509041228 | 21 | 157 | 0.0 | 6.4 | 0.00 | 1.52 | 1.52 | 99 | 1016.5 |
| 20260509040727 | 21 | 210 | 6.4 | 6.4 | 0.00 | 1.52 | 1.52 | 99 | 1016.4 |
| 20260509040223 | 21 | 114 | 0.0 | 6.4 | 0.00 | 1.52 | 1.52 | 99 | 1016.0 |
| 20260509035719 | 21 | 99 | 0.0 | 4.8 | 0.00 | 1.52 | 1.52 | 99 | 1016.4 |
| 20260509035216 | 22 | 105 | 0.0 | 1.6 | 0.00 | 1.52 | 1.52 | 99 | 1016.5 |
| 20260509034714 | 22 | 0 | 0.0 | 0.0 | 0.00 | 1.52 | 1.52 | 99 | 1017.1 |
| 20260509034211 | 22 | 0 | 0.0 | 0.0 | 0.00 | 1.52 | 1.52 | 99 | 1017.5 |
| 20260509033708 | 22 | 15 | 0.0 | 3.2 | 0.00 | 1.52 | 1.52 | 99 | 1017.2 |
| 20260509033205 | 22 | 15 | 0.0 | 3.2 | 0.00 | 1.52 | 1.52 | 99 | 1017.4 |
| 20260509032702 | 22 | 246 | 0.0 | 0.0 | 0.00 | 1.52 | 1.52 | 99 | 1017.1 |
| 20260509032159 | 22 | 246 | 0.0 | 0.0 | 0.00 | 1.52 | 1.52 | 99 | 1016.8 |
| 20260509031656 | 22 | 251 | 0.0 | 1.6 | 0.00 | 1.52 | 1.52 | 99 | 1016.7 |
| 20260509031154 | 22 | 90 | 0.0 | 0.0 | 0.00 | 1.52 | 1.52 | 99 | 1016.7 |
| 20260509030652 | 22 | 106 | 0.0 | 3.2 | 0.00 | 1.52 | 1.52 | 99 | 1016.7 |
| 20260509030149 | 22 | 90 | 0.0 | 0.0 | 0.00 | 1.52 | 1.52 | 99 | 1017.0 |
| 20260509025645 | 21 | 90 | 0.0 | 3.2 | 0.00 | 1.52 | 1.52 | 99 | 1016.7 |
| 20260509025141 | 22 | 69 | 0.0 | 3.2 | 0.00 | 1.52 | 1.52 | 99 | 1016.7 |
| 20260509024637 | 21 | 74 | 1.6 | 1.6 | 0.00 | 1.52 | 1.52 | 99 | 1016.5 |
| 20260509024133 | 21 | 74 | 0.0 | 1.6 | 0.00 | 1.52 | 1.52 | 99 | 1016.1 |
| 20260509023631 | 21 | 90 | 0.0 | 0.0 | 0.00 | 1.52 | 1.52 | 99 | 1015.7 |
| 20260509023127 | 21 | 98 | 0.0 | 3.2 | 0.00 | 1.52 | 1.52 | 99 | 1015.7 |
| 20260509022623 | 21 | 190 | 0.0 | 4.8 | 0.00 | 1.52 | 1.52 | 99 | 1015.4 |
| 20260509022122 | 21 | 140 | 0.0 | 4.8 | 0.00 | 1.52 | 1.52 | 99 | 1015.3 |
| 20260509021618 | 21 | 99 | 0.0 | 3.2 | 0.00 | 1.52 | 1.52 | 99 | 1015.5 |
| 20260509021115 | 22 | 114 | 0.0 | 1.6 | 0.00 | 1.52 | 1.52 | 99 | 1015.4 |
| 20260509020614 | 21 | 98 | 0.0 | 3.2 | 0.00 | 1.52 | 1.52 | 99 | 1015.4 |
| 20260509020110 | 21 | 97 | 0.0 | 4.8 | 0.00 | 1.52 | 1.52 | 99 | 1015.4 |
| 20260509015610 | 21 | 105 | 0.0 | 3.2 | 0.00 | 1.52 | 1.52 | 99 | 1015.3 |
| 20260509015106 | 21 | 131 | 0.0 | 6.4 | 0.00 | 1.52 | 1.52 | 99 | 1015.2 |
| 20260509014602 | 21 | 81 | 0.0 | 3.2 | 0.00 | 1.52 | 1.52 | 99 | 1015.4 |
| 20260509014059 | 22 | 121 | 0.0 | 0.0 | 0.00 | 1.52 | 1.52 | 99 | 1015.0 |
| 20260509013556 | 22 | 139 | 0.0 | 3.2 | 0.00 | 1.52 | 1.52 | 99 | 1015.0 |
| 20260509013052 | 22 | 74 | 0.0 | 0.0 | 0.00 | 1.52 | 1.52 | 99 | 1015.0 |
| 20260509012549 | 22 | 114 | 0.0 | 0.0 | 0.00 | 1.52 | 1.52 | 99 | 1015.3 |
| 20260509012045 | 22 | 98 | 1.6 | 3.2 | 0.00 | 1.52 | 1.52 | 99 | 1015.3 |
| 20260509011543 | 22 | 106 | 0.0 | 3.2 | 0.00 | 1.52 | 1.52 | 99 | 1015.0 |
| 20260509011040 | 22 | 114 | 0.0 | 3.2 | 0.00 | 1.52 | 1.52 | 99 | 1014.9 |
| 20260509010538 | 22 | 188 | 0.0 | 1.6 | 0.00 | 1.52 | 1.52 | 99 | 1015.2 |
| 20260509010035 | 22 | 156 | 0.0 | 3.2 | 0.00 | 1.52 | 1.52 | 99 | 1015.0 |
| 20260509005532 | 22 | 98 | 0.0 | 4.8 | 0.00 | 1.52 | 1.52 | 99 | 1015.2 |
| 20260509005027 | 22 | 174 | 0.0 | 0.0 | 0.00 | 1.52 | 1.52 | 99 | 1014.9 |
| 20260509004524 | 22 | 111 | 0.0 | 3.2 | 0.00 | 1.52 | 1.52 | 99 | 1014.7 |
| 20260509004021 | 22 | 195 | 0.0 | 6.4 | 0.00 | 1.52 | 1.52 | 99 | 1014.5 |
| 20260509003519 | 23 | 109 | 0.0 | 8.0 | 0.00 | 1.52 | 1.52 | 99 | 1014.5 |
| 20260509003016 | 23 | 285 | 0.0 | 6.4 | 0.00 | 1.52 | 1.52 | 99 | 1014.4 |
| 20260509002514 | 23 | 196 | 3.2 | 6.4 | 0.00 | 1.52 | 1.52 | 99 | 1014.4 |
| 20260509002011 | 23 | 187 | 0.0 | 4.8 | 0.00 | 1.52 | 1.52 | 99 | 1014.6 |
| 20260509001508 | 23 | 144 | 0.0 | 6.4 | 0.00 | 1.52 | 1.52 | 99 | 1014.5 |
| 20260509001004 | 23 | 225 | 0.0 | 4.8 | 0.00 | 1.52 | 1.52 | 99 | 1014.6 |
| 20260509000503 | 23 | 111 | 0.0 | 8.0 | 0.00 | 1.52 | 1.52 | 99 | 1014.2 |
| 20260508235957 | 23 | 145 | 1.6 | 3.2 | 0.00 | 1.52 | 1.52 | 99 | 1014.7 |
| 20260508235456 | 23 | 225 | 3.2 | 3.2 | 0.00 | 1.52 | 1.52 | 99 | 1014.8 |
| 20260508234952 | 23 | 112 | 0.0 | 4.8 | 0.00 | 1.52 | 1.52 | 99 | 1015.0 |
| 20260508234449 | 24 | 117 | 0.0 | 4.8 | 0.00 | 1.52 | 1.52 | 99 | 1014.9 |
| 20260508233947 | 24 | 146 | 3.2 | 6.4 | 0.00 | 1.52 | 1.52 | 99 | 1015.0 |
| 20260508233446 | 25 | 142 | 3.2 | 12.9 | 0.00 | 1.52 | 1.52 | 99 | 1015.0 |
| 20260508232942 | 25 | 213 | 0.0 | 11.3 | 0.00 | 1.52 | 1.52 | 99 | 1015.0 |
| 20260508232439 | 25 | 144 | 0.0 | 4.8 | 0.00 | 1.52 | 1.52 | 99 | 1015.0 |
| 20260508231937 | 24 | 105 | 1.6 | 6.4 | 0.00 | 1.52 | 1.52 | 99 | 1015.2 |
| 20260508231434 | 24 | 195 | 3.2 | 6.4 | 0.00 | 1.52 | 1.52 | 99 | 1015.2 |
| 20260508230931 | 24 | 225 | 0.0 | 6.4 | 0.00 | 1.52 | 1.52 | 99 | 1015.2 |
| 20260508230427 | 24 | 203 | 4.8 | 11.3 | 0.00 | 1.52 | 1.52 | 99 | 1015.2 |
| 20260508225924 | 24 | 184 | 3.2 | 9.7 | 0.00 | 1.52 | 1.52 | 99 | 1015.3 |
| 20260508225421 | 25 | 195 | 0.0 | 4.8 | 0.00 | 1.52 | 1.52 | 99 | 1015.3 |
| 20260508224919 | 25 | 223 | 6.4 | 6.4 | 0.00 | 1.52 | 1.52 | 99 | 1015.0 |
| 20260508224416 | 25 | 140 | 0.0 | 4.8 | 0.00 | 1.52 | 1.52 | 99 | 1015.2 |
| 20260508223913 | 25 | 100 | 0.0 | 6.4 | 0.00 | 1.52 | 1.52 | 99 | 1015.4 |
| 20260508223411 | 25 | 201 | 3.2 | 6.4 | 0.00 | 1.52 | 1.52 | 99 | 1015.2 |
| 20260508222908 | 25 | 157 | 3.2 | 4.8 | 0.00 | 1.52 | 1.52 | 99 | 1015.3 |
| 20260508222405 | 26 | 203 | 1.6 | 4.8 | 0.00 | 1.52 | 1.52 | 99 | 1015.3 |
| 20260508221902 | 27 | 165 | 3.2 | 4.8 | 0.00 | 1.52 | 1.52 | 99 | 1015.2 |
| 20260508221357 | 27 | 0 | 0.0 | 6.4 | 0.00 | 1.52 | 1.52 | 99 | 1014.8 |
| 20260508220854 | 26 | 135 | 3.2 | 6.4 | 0.00 | 1.52 | 1.52 | 99 | 1014.8 |
| 20260508220350 | 26 | 112 | 0.0 | 3.2 | 0.00 | 1.52 | 1.52 | 99 | 1014.9 |
| 20260508215847 | 26 | 254 | 1.6 | 4.8 | 0.00 | 1.52 | 1.52 | 99 | 1015.2 |
| 20260508215344 | 26 | 100 | 0.0 | 6.4 | 0.00 | 1.52 | 1.52 | 99 | 1014.9 |
| 20260508214841 | 26 | 140 | 3.2 | 4.8 | 0.00 | 1.52 | 1.52 | 99 | 1015.0 |
| 20260508214338 | 26 | 109 | 0.0 | 8.0 | 0.00 | 1.52 | 1.52 | 99 | 1014.9 |
| 20260508213834 | 26 | 105 | 0.0 | 4.8 | 0.00 | 1.52 | 1.52 | 99 | 1015.0 |
| 20260508213332 | 26 | 245 | 0.0 | 6.4 | 0.00 | 1.52 | 1.52 | 99 | 1015.0 |
| 20260508212827 | 25 | 202 | 0.0 | 6.4 | 0.00 | 1.52 | 1.52 | 99 | 1015.2 |
| 20260508212324 | 26 | 132 | 3.2 | 6.4 | 0.00 | 1.52 | 1.52 | 99 | 1015.2 |
| 20260508211820 | 26 | 99 | 3.2 | 4.8 | 0.00 | 1.52 | 1.52 | 99 | 1015.2 |
| 20260508211315 | 26 | 283 | 0.0 | 6.4 | 0.00 | 1.52 | 1.52 | 99 | 1015.8 |
| 20260508210813 | 26 | 147 | 0.0 | 4.8 | 0.00 | 1.52 | 1.52 | 99 | 1015.9 |
| 20260508210310 | 26 | 79 | 0.0 | 8.0 | 0.00 | 1.52 | 1.52 | 99 | 1016.2 |
| 20260508205807 | 25 | 188 | 3.2 | 8.0 | 0.00 | 1.52 | 1.52 | 99 | 1016.6 |
| 20260508205306 | 24 | 135 | 3.2 | 4.8 | 0.00 | 1.52 | 1.52 | 99 | 1016.2 |
| 20260508204759 | 24 | 145 | 1.6 | 9.7 | 0.00 | 1.52 | 1.52 | 99 | 1016.4 |
| 20260508204256 | 24 | 270 | 1.6 | 11.3 | 0.00 | 1.52 | 1.52 | 99 | 1016.9 |
| 20260508203752 | 24 | 231 | 0.0 | 16.1 | 0.00 | 1.52 | 1.52 | 99 | 1016.8 |
| 20260508203249 | 25 | 240 | 1.6 | 6.4 | 0.00 | 1.52 | 1.52 | 99 | 1017.0 |
| 20260508202744 | 25 | 226 | 8.0 | 8.0 | 0.00 | 1.52 | 1.52 | 99 | 1016.8 |
| 20260508202242 | 25 | 143 | 4.8 | 14.5 | 0.00 | 1.52 | 1.52 | 99 | 1017.1 |
| 20260508201739 | 25 | 184 | 0.0 | 9.7 | 0.00 | 1.52 | 1.52 | 99 | 1017.2 |
| 20260508201235 | 25 | 280 | 8.0 | 17.7 | 0.00 | 1.52 | 1.52 | 99 | 1016.9 |
| 20260508200732 | 25 | 241 | 0.0 | 8.0 | 0.00 | 1.52 | 1.52 | 99 | 1017.0 |
| 20260508200228 | 26 | 159 | 3.2 | 9.7 | 0.00 | 1.52 | 1.52 | 99 | 1017.0 |
| 20260508195725 | 26 | 203 | 1.6 | 8.0 | 0.00 | 1.52 | 1.52 | 99 | 1017.3 |
| 20260508195221 | 26 | 173 | 0.0 | 8.0 | 0.00 | 1.52 | 1.52 | 99 | 1017.2 |
| 20260508194718 | 26 | 98 | 1.6 | 8.0 | 0.00 | 1.52 | 1.52 | 99 | 1017.0 |
| 20260508194215 | 26 | 105 | 0.0 | 4.8 | 0.00 | 1.52 | 1.52 | 99 | 1017.1 |
| 20260508193712 | 27 | 106 | 0.0 | 3.2 | 0.00 | 1.52 | 1.52 | 99 | 1017.0 |
| 20260508193208 | 26 | 265 | 3.2 | 6.4 | 0.00 | 1.52 | 1.52 | 99 | 1017.5 |
| 20260508192705 | 27 | 132 | 0.0 | 3.2 | 0.00 | 1.52 | 1.52 | 99 | 1017.3 |
| 20260508192202 | 26 | 195 | 0.0 | 4.8 | 0.00 | 1.52 | 1.52 | 99 | 1017.4 |
| 20260508191700 | 26 | 109 | 0.0 | 4.8 | 0.00 | 1.52 | 1.52 | 99 | 1017.6 |
| 20260508191156 | 26 | 215 | 0.0 | 3.2 | 0.00 | 1.52 | 1.52 | 99 | 1017.3 |
| 20260508190654 | 26 | 131 | 0.0 | 8.0 | 0.00 | 1.52 | 1.52 | 99 | 1017.6 |
| 20260508190149 | 25 | 90 | 1.6 | 4.8 | 0.00 | 1.52 | 1.52 | 99 | 1017.5 |
| 20260508185646 | 25 | 103 | 0.0 | 6.4 | 0.00 | 1.52 | 1.52 | 99 | 1017.3 |
| 20260508185144 | 26 | 105 | 0.0 | 6.4 | 0.00 | 1.52 | 1.52 | 99 | 1017.6 |
| 20260508184641 | 25 | 141 | 4.8 | 4.8 | 0.00 | 1.52 | 1.52 | 99 | 1017.4 |
| 20260508184138 | 25 | 105 | 0.0 | 4.8 | 0.00 | 1.52 | 1.52 | 99 | 1017.5 |
| 20260508183635 | 25 | 117 | 0.0 | 4.8 | 0.00 | 1.52 | 1.52 | 99 | 1017.7 |
| 20260508183130 | 24 | 132 | 3.2 | 6.4 | 0.00 | 1.52 | 1.52 | 99 | 1018.0 |
| 20260508182627 | 26 | 90 | 0.0 | 3.2 | 0.00 | 1.52 | 1.52 | 99 | 1018.1 |
| 20260508182124 | 25 | 117 | 1.6 | 3.2 | 0.00 | 1.52 | 1.52 | 99 | 1018.3 |
| 20260508181619 | 25 | 114 | 0.0 | 6.4 | 0.00 | 1.52 | 1.52 | 99 | 1018.3 |
| 20260508181117 | 25 | 127 | 3.2 | 3.2 | 0.00 | 1.52 | 1.52 | 99 | 1018.5 |
| 20260508180613 | 25 | 103 | 0.0 | 4.8 | 0.00 | 1.52 | 1.52 | 99 | 1018.5 |
| 20260508180110 | 25 | 48 | 0.0 | 3.2 | 0.00 | 1.52 | 1.52 | 99 | 1018.3 |
| 20260508175607 | 25 | 131 | 3.2 | 4.8 | 0.00 | 1.52 | 1.52 | 99 | 1018.6 |
| 20260508175104 | 24 | 63 | 4.8 | 4.8 | 0.00 | 1.52 | 1.52 | 99 | 1018.5 |
| 20260508174601 | 24 | 105 | 1.6 | 4.8 | 0.00 | 1.52 | 1.52 | 99 | 1018.5 |
| 20260508174058 | 24 | 105 | 1.6 | 8.0 | 0.00 | 1.52 | 1.52 | 99 | 1018.7 |
| 20260508173555 | 24 | 195 | 0.0 | 1.6 | 0.00 | 1.52 | 1.52 | 99 | 1018.8 |
| 20260508173051 | 23 | 208 | 3.2 | 4.8 | 0.00 | 1.52 | 1.52 | 99 | 1019.0 |
| 20260508172548 | 23 | 128 | 0.0 | 4.8 | 0.00 | 1.52 | 1.52 | 99 | 1018.9 |
| 20260508172045 | 23 | 125 | 3.2 | 4.8 | 0.00 | 1.52 | 1.52 | 99 | 1019.1 |
| 20260508171541 | 23 | 113 | 3.2 | 4.8 | 0.00 | 1.52 | 1.52 | 99 | 1019.2 |
| 20260508171038 | 23 | 146 | 3.2 | 4.8 | 0.00 | 1.52 | 1.52 | 99 | 1019.7 |
| 20260508170535 | 23 | 32 | 3.2 | 4.8 | 0.00 | 1.52 | 1.52 | 99 | 1019.7 |
| 20260508170032 | 22 | 127 | 3.2 | 4.8 | 0.00 | 1.52 | 1.52 | 99 | 1019.7 |
| 20260508165529 | 22 | 180 | 3.2 | 9.7 | 0.00 | 1.52 | 1.52 | 99 | 1019.6 |
| 20260508165026 | 22 | 143 | 4.8 | 6.4 | 0.00 | 1.52 | 1.52 | 99 | 1019.9 |
| 20260508164523 | 21 | 236 | 4.8 | 4.8 | 0.00 | 1.52 | 1.52 | 99 | 1019.9 |
| 20260508164019 | 21 | 120 | 0.0 | 4.8 | 0.00 | 1.52 | 1.52 | 99 | 1019.9 |
| 20260508163517 | 21 | 208 | 0.0 | 3.2 | 0.00 | 1.52 | 1.52 | 99 | 1020.3 |
| 20260508163013 | 21 | 106 | 1.6 | 3.2 | 0.00 | 1.52 | 1.52 | 99 | 1020.4 |
| 20260508162511 | 21 | 112 | 0.0 | 8.0 | 0.00 | 1.52 | 1.52 | 99 | 1020.8 |
| 20260508162008 | 21 | 157 | 0.0 | 6.4 | 0.00 | 1.52 | 1.52 | 99 | 1020.6 |
| 20260508161504 | 21 | 216 | 0.0 | 6.4 | 0.00 | 1.52 | 1.52 | 99 | 1020.5 |
| 20260508161001 | 20 | 255 | 0.0 | 4.8 | 0.00 | 1.52 | 1.52 | 99 | 1020.7 |
| 20260508160500 | 20 | 168 | 0.0 | 6.4 | 0.00 | 1.52 | 1.52 | 99 | 1020.7 |
| 20260508155956 | 21 | 275 | 0.0 | 8.0 | 0.00 | 1.52 | 1.52 | 99 | 1020.7 |
| 20260508155453 | 21 | 213 | 4.8 | 17.7 | 0.00 | 1.52 | 1.52 | 99 | 1020.5 |
| 20260508154950 | 20 | 176 | 0.0 | 6.4 | 0.00 | 1.52 | 1.52 | 99 | 1021.0 |
| 20260508154448 | 20 | 270 | 1.6 | 3.2 | 0.00 | 1.52 | 1.52 | 99 | 1021.0 |
| 20260508153944 | 20 | 265 | 3.2 | 3.2 | 0.00 | 1.52 | 1.52 | 99 | 1021.1 |
| 20260508153441 | 19 | 270 | 1.6 | 1.6 | 0.00 | 1.52 | 1.52 | 99 | 1020.9 |
| 20260508152937 | 19 | 262 | 0.0 | 3.2 | 0.00 | 1.52 | 1.52 | 99 | 1020.9 |
| 20260508152434 | 19 | 263 | 0.0 | 3.2 | 0.00 | 1.52 | 1.52 | 99 | 1021.1 |
| 20260508151930 | 18 | 117 | 0.0 | 0.0 | 9.12 | 1.52 | 1.52 | 99 | 1020.9 |
| 20260508151427 | 19 | 254 | 0.0 | 1.6 | 9.12 | 1.52 | 1.52 | 99 | 1021.2 |
| 20260508150924 | 19 | 219 | 0.0 | 0.0 | 0.00 | 0.00 | 0.00 | 99 | 1021.2 |
| 20260508150420 | 19 | 225 | 0.0 | 3.2 | 0.00 | 0.00 | 0.00 | 99 | 1021.1 |
| 20260508145916 | 19 | 257 | 0.0 | 1.6 | 0.00 | 0.00 | 0.00 | 99 | 1021.3 |
| 20260508145413 | 18 | 253 | 0.0 | 3.2 | 0.00 | 0.00 | 0.00 | 99 | 1021.1 |
| 20260508144910 | 18 | 254 | 0.0 | 4.8 | 0.00 | 0.00 | 0.00 | 99 | 1021.2 |
| 20260508144408 | 18 | 209 | 0.0 | 6.4 | 0.00 | 0.00 | 0.00 | 99 | 1020.9 |
| 20260508143905 | 18 | 180 | 0.0 | 1.6 | 0.00 | 0.00 | 0.00 | 99 | 1021.1 |
| 20260508143402 | 18 | 235 | 0.0 | 3.2 | 0.00 | 0.00 | 0.00 | 99 | 1021.2 |
| 20260508142859 | 18 | 236 | 0.0 | 3.2 | 0.00 | 0.00 | 0.00 | 99 | 1021.4 |
| 20260508142356 | 18 | 254 | 0.0 | 1.6 | 0.00 | 0.00 | 0.00 | 99 | 1021.2 |
| 20260508141852 | 17 | 261 | 0.0 | 0.0 | 0.00 | 0.00 | 0.00 | 99 | 1021.1 |
| 20260508141349 | 16 | 234 | 0.0 | 3.2 | 0.00 | 0.00 | 0.00 | 99 | 1021.4 |
| 20260508140847 | 16 | 270 | 0.0 | 3.2 | 0.00 | 0.00 | 0.00 | 99 | 1021.6 |
| 20260508140343 | 16 | 294 | 0.0 | 3.2 | 0.00 | 0.00 | 0.00 | 99 | 1021.4 |
| 20260508135839 | 16 | 270 | 0.0 | 0.0 | 0.00 | 0.00 | 0.00 | 99 | 1021.3 |
| 20260508135335 | 16 | 270 | 0.0 | 0.0 | 0.00 | 0.00 | 0.00 | 99 | 1021.4 |
| 20260508134832 | 16 | 261 | 0.0 | 3.2 | 0.00 | 0.00 | 0.00 | 99 | 1021.5 |
| 20260508134328 | 16 | 173 | 0.0 | 1.6 | 0.00 | 0.00 | 0.00 | 99 | 1021.5 |
| 20260508133825 | 16 | 255 | 0.0 | 0.0 | 0.00 | 0.00 | 0.00 | 99 | 1021.1 |
| 20260508133323 | 16 | 270 | 1.6 | 1.6 | 0.00 | 0.00 | 0.00 | 99 | 1021.2 |
| 20260508132820 | 15 | 180 | 0.0 | 1.6 | 0.00 | 0.00 | 0.00 | 99 | 1021.4 |
| 20260508132318 | 15 | 259 | 0.0 | 3.2 | 0.00 | 0.00 | 0.00 | 99 | 1021.5 |
| 20260508131814 | 15 | 279 | 0.0 | 0.0 | 0.00 | 0.00 | 0.00 | 99 | 1021.4 |
| 20260508131310 | 15 | 270 | 0.0 | 0.0 | 0.00 | 0.00 | 0.00 | 99 | 1021.2 |
| 20260508130806 | 15 | 278 | 1.6 | 3.2 | 0.00 | 0.00 | 0.00 | 99 | 1021.1 |
| 20260508130304 | 15 | 255 | 0.0 | 0.0 | 0.00 | 0.00 | 0.00 | 99 | 1021.5 |
| 20260508125800 | 15 | 255 | 0.0 | 1.6 | 0.00 | 0.00 | 0.00 | 99 | 1021.9 |
| 20260508125256 | 15 | 282 | 3.2 | 3.2 | 0.00 | 0.00 | 0.00 | 99 | 1021.9 |
| 20260508124754 | 15 | 286 | 0.0 | 1.6 | 0.00 | 0.00 | 0.00 | 99 | 1021.7 |
| 20260508124251 | 15 | 278 | 0.0 | 0.0 | 0.00 | 0.00 | 0.00 | 99 | 1021.7 |
| 20260508123749 | 15 | 261 | 0.0 | 3.2 | 0.00 | 0.00 | 0.00 | 99 | 1021.9 |
| 20260508123247 | 15 | 218 | 0.0 | 3.2 | 0.00 | 0.00 | 0.00 | 99 | 1021.7 |
| 20260508122743 | 15 | 285 | 0.0 | 0.0 | 0.00 | 0.00 | 0.00 | 99 | 1021.7 |
| 20260508122240 | 15 | 285 | 0.0 | 3.2 | 0.00 | 0.00 | 0.00 | 99 | 1021.7 |
| 20260508121737 | 15 | 279 | 0.0 | 0.0 | 0.00 | 0.00 | 0.00 | 99 | 1021.7 |
| 20260508121236 | 15 | 236 | 0.0 | 3.2 | 0.00 | 0.00 | 0.00 | 99 | 1021.6 |
| 20260508120733 | 15 | 221 | 0.0 | 3.2 | 0.00 | 0.00 | 0.00 | 99 | 1021.3 |
| 20260508120231 | 15 | 270 | 0.0 | 0.0 | 0.00 | 0.00 | 0.00 | 99 | 1021.5 |
| 20260508115728 | 15 | 206 | 0.0 | 3.2 | 0.00 | 0.00 | 0.00 | 99 | 1021.9 |
| 20260508115226 | 15 | 270 | 1.6 | 3.2 | 0.00 | 0.00 | 0.00 | 99 | 1021.7 |
| 20260508114722 | 15 | 262 | 1.6 | 3.2 | 0.00 | 0.00 | 0.00 | 99 | 1021.4 |
| 20260508114218 | 15 | 292 | 3.2 | 3.2 | 0.00 | 0.00 | 0.00 | 99 | 1021.4 |
| 20260508113715 | 15 | 246 | 0.0 | 3.2 | 0.00 | 0.00 | 0.00 | 99 | 1021.6 |
| 20260508113214 | 15 | 261 | 0.0 | 0.0 | 0.00 | 0.00 | 0.00 | 99 | 1021.6 |
| 20260508112709 | 15 | 306 | 0.0 | 1.6 | 0.00 | 0.00 | 0.00 | 99 | 1021.4 |
| 20260508112207 | 15 | 270 | 0.0 | 0.0 | 0.00 | 0.00 | 0.00 | 99 | 1021.2 |
| 20260508111703 | 15 | 270 | 0.0 | 1.6 | 0.00 | 0.00 | 0.00 | 99 | 1021.1 |
| 20260508111201 | 15 | 215 | 0.0 | 4.8 | 0.00 | 0.00 | 0.00 | 99 | 1021.4 |
| 20260508110658 | 15 | 114 | 0.0 | 1.6 | 0.00 | 0.00 | 0.00 | 99 | 1021.2 |
| 20260508110155 | 15 | 261 | 0.0 | 1.6 | 0.00 | 0.00 | 0.00 | 99 | 1021.8 |
| 20260508105655 | 15 | 297 | 1.6 | 3.2 | 0.00 | 0.00 | 0.00 | 99 | 1022.3 |
| 20260508105152 | 15 | 286 | 0.0 | 4.8 | 0.00 | 0.00 | 0.00 | 99 | 1021.8 |
| 20260508104649 | 15 | 246 | 0.0 | 0.0 | 0.00 | 0.00 | 0.00 | 99 | 1021.5 |
| 20260508104146 | 15 | 246 | 0.0 | 3.2 | 0.00 | 0.00 | 0.00 | 99 | 1021.6 |
| 20260508103643 | 15 | 314 | 6.4 | 9.7 | 0.00 | 0.00 | 0.00 | 99 | 1022.2 |
| 20260508103140 | 15 | 331 | 0.0 | 3.2 | 0.00 | 0.00 | 0.00 | 99 | 1021.3 |
| 20260508102637 | 15 | 328 | 0.0 | 0.0 | 0.00 | 0.00 | 0.00 | 99 | 1020.9 |
| 20260508102136 | 15 | 325 | 1.6 | 6.4 | 0.00 | 0.00 | 0.00 | 99 | 1021.4 |
| 20260508101632 | 15 | 283 | 3.2 | 4.8 | 0.00 | 0.00 | 0.00 | 99 | 1020.8 |
| 20260508101130 | 15 | 261 | 0.0 | 1.6 | 0.00 | 0.00 | 0.00 | 99 | 1020.4 |
| 20260508100627 | 15 | 277 | 0.0 | 3.2 | 0.00 | 0.00 | 0.00 | 99 | 1020.3 |
| 20260508100125 | 15 | 261 | 0.0 | 3.2 | 0.00 | 0.00 | 0.00 | 99 | 1020.5 |
| 20260508095621 | 15 | 270 | 0.0 | 0.0 | 0.00 | 0.00 | 0.00 | 99 | 1020.4 |
| 20260508095119 | 15 | 270 | 0.0 | 1.6 | 0.00 | 0.00 | 0.00 | 99 | 1020.7 |
| 20260508094615 | 15 | 270 | 0.0 | 1.6 | 0.00 | 0.00 | 0.00 | 99 | 1020.6 |
| 20260508094112 | 15 | 270 | 0.0 | 1.6 | 0.00 | 0.00 | 0.00 | 99 | 1020.4 |
| 20260508093609 | 15 | 254 | 0.0 | 0.0 | 0.00 | 0.00 | 0.00 | 99 | 1020.6 |
| 20260508093107 | 15 | 254 | 0.0 | 3.2 | 0.00 | 0.00 | 0.00 | 99 | 1020.9 |
| 20260508092604 | 15 | 285 | 1.6 | 1.6 | 0.00 | 0.00 | 0.00 | 99 | 1020.9 |
| 20260508092103 | 15 | 270 | 0.0 | 0.0 | 0.00 | 0.00 | 0.00 | 99 | 1020.8 |
| 20260508091559 | 15 | 270 | 0.0 | 1.6 | 0.00 | 0.00 | 0.00 | 99 | 1020.6 |
| 20260508091056 | 15 | 294 | 0.0 | 1.6 | 0.00 | 0.00 | 0.00 | 99 | 1020.8 |
| 20260508090554 | 15 | 233 | 3.2 | 3.2 | 0.00 | 0.00 | 0.00 | 99 | 1021.3 |
| 20260508090051 | 15 | 262 | 0.0 | 0.0 | 0.00 | 0.00 | 0.00 | 99 | 1020.9 |
| 20260508085547 | 15 | 234 | 1.6 | 3.2 | 0.00 | 0.00 | 0.00 | 99 | 1021.7 |
| 20260508085045 | 15 | 254 | 1.6 | 3.2 | 0.00 | 0.00 | 0.00 | 99 | 1021.4 |
| 20260508084541 | 15 | 291 | 6.4 | 6.4 | 0.00 | 0.00 | 0.00 | 99 | 1021.4 |
| 20260508084039 | 15 | 303 | 3.2 | 4.8 | 0.00 | 0.00 | 0.00 | 99 | 1021.0 |
| 20260508083536 | 15 | 75 | 0.0 | 3.2 | 0.00 | 0.00 | 0.00 | 99 | 1020.3 |
| 20260508083032 | 15 | 246 | 0.0 | 3.2 | 0.00 | 0.00 | 0.00 | 99 | 1020.9 |
| 20260508082528 | 15 | 279 | 0.0 | 0.0 | 0.00 | 0.00 | 0.00 | 99 | 1021.2 |
| 20260508082026 | 15 | 279 | 0.0 | 3.2 | 0.00 | 0.00 | 0.00 | 99 | 1021.8 |
| 20260508081523 | 15 | 90 | 0.0 | 3.2 | 0.00 | 0.00 | 0.00 | 99 | 1021.7 |
| 20260508081019 | 16 | 90 | 0.0 | 0.0 | 0.00 | 0.00 | 0.00 | 99 | 1021.5 |
| 20260508080517 | 16 | 120 | 1.6 | 3.2 | 0.00 | 0.00 | 0.00 | 99 | 1021.7 |
| 20260508080014 | 16 | 303 | 0.0 | 4.8 | 0.00 | 0.00 | 0.00 | 99 | 1022.3 |
| 20260508075511 | 16 | 257 | 0.0 | 6.4 | 0.00 | 0.00 | 0.00 | 99 | 1022.6 |
| 20260508075008 | 16 | 270 | 1.6 | 3.2 | 0.00 | 0.00 | 0.00 | 99 | 1022.7 |
| 20260508074506 | 16 | 261 | 0.0 | 3.2 | 0.00 | 0.00 | 0.00 | 99 | 1022.4 |
| 20260508074003 | 16 | 251 | 3.2 | 4.8 | 0.00 | 0.00 | 0.00 | 99 | 1022.4 |
| 20260508073500 | 16 | 98 | 0.0 | 0.0 | 0.00 | 0.00 | 0.00 | 99 | 1021.8 |
| 20260508072957 | 16 | 98 | 0.0 | 0.0 | 0.00 | 0.00 | 0.00 | 99 | 1022.0 |
| 20260508072453 | 15 | 98 | 0.0 | 0.0 | 0.00 | 0.00 | 0.00 | 99 | 1021.8 |
| 20260508071950 | 15 | 98 | 0.0 | 0.0 | 0.00 | 0.00 | 0.00 | 99 | 1021.8 |
| 20260508071448 | 15 | 15 | 0.0 | 1.6 | 0.00 | 0.00 | 0.00 | 99 | 1022.1 |
| 20260508070945 | 15 | 99 | 0.0 | 0.0 | 0.00 | 0.00 | 0.00 | 99 | 1021.8 |
| 20260508070443 | 15 | 99 | 0.0 | 0.0 | 0.00 | 0.00 | 0.00 | 99 | 1021.9 |
| 20260508065941 | 15 | 99 | 0.0 | 0.0 | 0.00 | 0.00 | 0.00 | 99 | 1021.9 |
| 20260508065439 | 15 | 81 | 0.0 | 0.0 | 0.00 | 0.00 | 0.00 | 99 | 1022.2 |
| 20260508064937 | 15 | 90 | 0.0 | 0.0 | 0.00 | 0.00 | 0.00 | 99 | 1022.2 |
| 20260508064434 | 15 | 90 | 0.0 | 0.0 | 0.00 | 0.00 | 0.00 | 99 | 1022.5 |
| 20260508063931 | 15 | 66 | 0.0 | 3.2 | 0.00 | 0.00 | 0.00 | 99 | 1022.6 |
| 20260508063429 | 15 | 14 | 0.0 | 1.6 | 0.00 | 0.00 | 0.00 | 99 | 1022.7 |
| 20260508062926 | 15 | 90 | 0.0 | 0.0 | 0.00 | 0.00 | 0.00 | 99 | 1022.4 |
| 20260508062424 | 15 | 195 | 0.0 | 0.0 | 0.00 | 0.00 | 0.00 | 99 | 1022.6 |
| 20260508061921 | 15 | 195 | 0.0 | 0.0 | 0.00 | 0.00 | 0.00 | 99 | 1022.9 |
| 20260508061419 | 15 | 114 | 0.0 | 0.0 | 0.00 | 0.00 | 0.00 | 99 | 1022.8 |
| 20260508060914 | 15 | 114 | 0.0 | 0.0 | 0.00 | 0.00 | 0.00 | 99 | 1022.4 |
| 20260508060412 | 15 | 114 | 0.0 | 1.6 | 0.00 | 0.00 | 0.00 | 99 | 1022.4 |
| 20260508055907 | 15 | 114 | 0.0 | 1.6 | 0.00 | 0.00 | 0.00 | 99 | 1022.1 |
| 20260508055405 | 15 | 99 | 0.0 | 0.0 | 0.00 | 0.00 | 0.00 | 99 | 1022.5 |
| 20260508054901 | 15 | 99 | 0.0 | 0.0 | 0.00 | 0.00 | 0.00 | 99 | 1022.4 |
| 20260508054358 | 15 | 99 | 0.0 | 0.0 | 0.00 | 0.00 | 0.00 | 99 | 1022.4 |
| 20260508053855 | 15 | 99 | 0.0 | 0.0 | 0.00 | 0.00 | 0.00 | 99 | 1022.2 |
| 20260508053353 | 15 | 99 | 0.0 | 0.0 | 0.00 | 0.00 | 0.00 | 99 | 1022.5 |
| 20260508052850 | 16 | 99 | 0.0 | 0.0 | 0.00 | 0.00 | 0.00 | 99 | 1022.5 |
| 20260508052347 | 16 | 99 | 0.0 | 0.0 | 0.00 | 0.00 | 0.00 | 99 | 1022.7 |
| 20260508051843 | 15 | 99 | 0.0 | 0.0 | 0.00 | 0.00 | 0.00 | 99 | 1022.7 |
| 20260508051339 | 16 | 99 | 0.0 | 0.0 | 0.00 | 0.00 | 0.00 | 99 | 1022.6 |
| 20260508050835 | 16 | 99 | 0.0 | 0.0 | 0.00 | 0.00 | 0.00 | 99 | 1022.6 |
| 20260508050333 | 16 | 99 | 0.0 | 0.0 | 0.00 | 0.00 | 0.00 | 99 | 1022.3 |
| 20260508045828 | 16 | 99 | 0.0 | 0.0 | 0.00 | 0.00 | 0.00 | 99 | 1022.5 |
| 20260508045326 | 16 | 99 | 0.0 | 0.0 | 0.00 | 0.00 | 0.00 | 99 | 1022.5 |
| 20260508044823 | 16 | 99 | 0.0 | 0.0 | 0.00 | 0.00 | 0.00 | 99 | 1022.6 |
| 20260508044320 | 16 | 99 | 0.0 | 0.0 | 0.00 | 0.00 | 0.00 | 99 | 1022.5 |